Location: Bouillancy
(49.1149°N, 2.9308°E)
Time: 08:25:27
(UTC+00:00)

Cosmos 1190 Rocket - Pass Details

Date: 30 September 2020
Orbit: 757 x 779 km, 74.1° (Epoch: 29 October)

Event Time Altitude Azimuth Distance (km) Brightness Sun altitude
Rises 20:07:06 0° 338° (NNW) 3,246 8.0 -26.0°
Reaches altitude 10° 20:09:31 10° 341° (NNW) 2,312 7.0 -26.3°
Enters shadow 20:14:03 58° 23° (NNE) 887 4.2 -27.0°
